TimeCST,TemperatureF,Dew PointF,Humidity,Sea Level PressureIn,VisibilityMPH,Wind Direction,Wind SpeedMPH,Gust SpeedMPH,PrecipitationIn,Events,Conditions,WindDirDegrees,DateUTC
12:15 AM,12.2,12.2,100,29.73,10.0,SW,11.5,-,N/A,,Clear,220,2013-01-08 06:15:00
12:55 AM,8.6,8.6,100,29.72,10.0,SW,8.1,-,N/A,,Clear,220,2013-01-08 06:55:00
1:15 AM,8.6,8.6,100,29.71,10.0,SSW,8.1,-,N/A,,Clear,210,2013-01-08 07:15:00
1:35 AM,8.6,6.8,92,29.70,10.0,SW,9.2,-,N/A,,Clear,220,2013-01-08 07:35:00
1:55 AM,8.6,8.6,100,29.70,10.0,SSW,8.1,-,N/A,,Clear,210,2013-01-08 07:55:00
2:15 AM,10.4,10.4,100,29.70,10.0,SSW,6.9,-,N/A,,Clear,210,2013-01-08 08:15:00
2:35 AM,12.2,12.2,100,29.71,10.0,SSW,9.2,-,N/A,,Clear,200,2013-01-08 08:35:00
2:55 AM,12.2,12.2,100,29.69,10.0,SSW,9.2,-,N/A,,Clear,200,2013-01-08 08:55:00
3:15 AM,8.6,8.6,100,29.69,10.0,SSW,9.2,-,N/A,,Clear,210,2013-01-08 09:15:00
3:35 AM,10.4,8.6,92,29.68,10.0,South,9.2,-,N/A,,Clear,190,2013-01-08 09:35:00
3:55 AM,12.2,12.2,100,29.67,10.0,SSW,11.5,-,N/A,,Clear,200,2013-01-08 09:55:00
4:15 AM,10.4,10.4,100,29.66,10.0,SSW,10.4,-,N/A,,Clear,200,2013-01-08 10:15:00
4:35 AM,10.4,10.4,100,29.65,10.0,SSW,9.2,-,N/A,,Clear,200,2013-01-08 10:35:00
4:55 AM,12.2,12.2,100,29.63,10.0,SSW,10.4,-,N/A,,Clear,200,2013-01-08 10:55:00
5:15 AM,14.0,14.0,100,29.64,10.0,SSW,11.5,-,N/A,,Clear,200,2013-01-08 11:15:00
5:35 AM,14.0,14.0,100,29.62,10.0,SSW,10.4,-,N/A,,Clear,200,2013-01-08 11:35:00
5:55 AM,14.0,14.0,100,29.62,10.0,SSE,9.2,-,N/A,,Clear,160,2013-01-08 11:55:00
6:15 AM,10.4,10.4,100,29.61,10.0,SSW,8.1,-,N/A,,Scattered Clouds,200,2013-01-08 12:15:00
6:35 AM,10.4,10.4,100,29.60,10.0,South,9.2,-,N/A,,Overcast,190,2013-01-08 12:35:00
6:55 AM,14.0,14.0,100,29.59,10.0,SSW,11.5,-,N/A,,Overcast,200,2013-01-08 12:55:00
7:15 AM,14.0,14.0,100,29.57,10.0,SSW,12.7,-,N/A,,Overcast,200,2013-01-08 13:15:00
7:35 AM,15.8,15.8,100,29.57,10.0,SSW,13.8,-,N/A,,Overcast,210,2013-01-08 13:35:00
7:55 AM,17.6,17.6,100,29.56,10.0,SSW,12.7,-,N/A,,Overcast,200,2013-01-08 13:55:00
8:15 AM,17.6,17.6,100,29.55,2.5,South,11.5,17.3,N/A,Snow,Light Snow,190,2013-01-08 14:15:00
8:35 AM,19.4,19.4,100,29.54,1.0,South,16.1,-,N/A,Snow,Light Snow,190,2013-01-08 14:35:00
8:55 AM,21.2,21.2,100,29.54,0.5,South,12.7,-,0.01,Snow,Snow,190,2013-01-08 14:55:00
9:15 AM,23.0,23.0,100,29.53,0.5,South,17.3,-,0.01,Snow,Snow,190,2013-01-08 15:15:00
9:35 AM,23.0,23.0,100,29.53,1.2,SSW,17.3,20.7,0.01,Rain,Freezing Rain,200,2013-01-08 15:35:00
9:55 AM,24.8,24.8,100,29.52,1.0,SSW,19.6,-,0.01,Rain,Freezing Rain,200,2013-01-08 15:55:00
10:15 AM,24.8,24.8,100,29.52,1.2,SSW,17.3,-,N/A,Rain,Freezing Rain,210,2013-01-08 16:15:00
10:35 AM,24.8,24.8,100,29.51,1.5,SSW,17.3,-,N/A,Rain,Freezing Rain,210,2013-01-08 16:35:00
10:55 AM,26.6,26.6,100,29.51,10.0,SSW,15.0,-,N/A,,Mostly Cloudy,210,2013-01-08 16:55:00
11:15 AM,26.6,26.6,100,29.51,10.0,SW,13.8,-,N/A,,Overcast,220,2013-01-08 17:15:00
11:55 AM,28.4,28.4,100,29.50,10.0,SW,16.1,-,N/A,,Overcast,230,2013-01-08 17:55:00
12:15 PM,28.4,28.4,100,29.49,10.0,SW,17.3,20.7,N/A,,Overcast,230,2013-01-08 18:15:00
12:55 PM,32.0,32.0,100,29.49,10.0,West,18.4,24.2,N/A,,Overcast,270,2013-01-08 18:55:00
1:15 PM,32.0,32.0,100,29.49,10.0,West,18.4,21.9,N/A,,Overcast,280,2013-01-08 19:15:00
1:55 PM,32.0,28.4,87,29.49,9.0,West,17.3,29.9,N/A,,Scattered Clouds,280,2013-01-08 19:55:00
2:15 PM,32.0,28.4,87,29.48,10.0,West,20.7,29.9,N/A,,Partly Cloudy,270,2013-01-08 20:15:00
2:35 PM,32.0,30.2,93,29.48,5.0,West,28.8,38.0,N/A,,Scattered Clouds,280,2013-01-08 20:35:00
2:55 PM,32.0,28.4,87,29.49,3.0,West,32.2,38.0,N/A,Rain,Light Rain,270,2013-01-08 20:55:00
3:15 PM,32.0,28.4,87,29.50,2.5,West,27.6,38.0,N/A,Rain,Light Rain,270,2013-01-08 21:15:00
3:35 PM,32.0,28.4,87,29.50,4.0,West,35.7,46.0,N/A,,Clear,270,2013-01-08 21:35:00
3:55 PM,32.0,28.4,87,29.52,2.0,West,29.9,40.3,N/A,Rain,Light Rain,270,2013-01-08 21:55:00
4:15 PM,32.0,28.4,87,29.53,5.0,West,27.6,32.2,N/A,,Clear,270,2013-01-08 22:15:00
4:35 PM,30.2,26.6,86,29.54,7.0,West,24.2,36.8,N/A,,Clear,270,2013-01-08 22:35:00
4:55 PM,28.4,26.6,93,29.55,8.0,West,25.3,35.7,N/A,,Clear,270,2013-01-08 22:55:00
5:15 PM,28.4,26.6,93,29.55,10.0,West,23.0,34.5,N/A,,Clear,270,2013-01-08 23:15:00
5:35 PM,28.4,26.6,93,29.55,9.0,West,25.3,34.5,N/A,,Clear,260,2013-01-08 23:35:00
5:55 PM,28.4,24.8,86,29.56,9.0,West,25.3,36.8,N/A,,Scattered Clouds,260,2013-01-08 23:55:00
6:15 PM,28.4,24.8,86,29.57,9.0,West,28.8,35.7,N/A,,Clear,270,2013-01-09 00:15:00
6:35 PM,28.4,24.8,86,29.57,5.0,West,31.1,39.1,N/A,,Clear,270,2013-01-09 00:35:00
6:55 PM,28.4,24.8,86,29.57,5.0,West,27.6,36.8,N/A,Rain,Freezing Rain,270,2013-01-09 00:55:00
7:15 PM,28.4,24.8,86,29.57,3.0,West,33.4,39.1,N/A,Rain,Freezing Rain,270,2013-01-09 01:15:00
7:55 PM,28.4,24.8,86,29.57,7.0,West,25.3,39.1,N/A,,Overcast,270,2013-01-09 01:55:00
8:15 PM,28.4,24.8,86,29.56,7.0,West,36.8,-,N/A,Rain,Freezing Rain,270,2013-01-09 02:15:00
8:35 PM,28.4,26.6,93,29.56,3.0,West,35.7,42.6,N/A,Rain,Freezing Rain,280,2013-01-09 02:35:00
8:55 PM,28.4,26.6,93,29.57,3.0,West,33.4,43.7,N/A,Rain,Freezing Rain,270,2013-01-09 02:55:00
9:35 PM,26.6,26.6,100,29.59,3.0,WNW,27.6,35.7,0.10,Rain,Freezing Rain,290,2013-01-09 03:35:00
9:55 PM,26.6,24.8,93,29.61,3.0,WNW,33.4,42.6,0.10,Rain,Freezing Rain,300,2013-01-09 03:55:00
10:15 PM,26.6,24.8,93,29.62,5.0,WNW,28.8,38.0,N/A,Rain,Freezing Rain,300,2013-01-09 04:15:00
10:35 PM,26.6,24.8,93,29.63,7.0,WNW,27.6,33.4,N/A,,Overcast,290,2013-01-09 04:35:00
10:55 PM,26.6,24.8,93,29.65,3.0,WNW,33.4,38.0,N/A,Rain,Freezing Rain,290,2013-01-09 04:55:00
11:55 PM,23.0,21.2,93,29.70,2.5,WNW,24.2,36.8,N/A,Rain,Freezing Rain,300,2013-01-09 05:55:00